Home   Weather   Rheinfelden (Baden)   Past weeks

Flag for Germany Past Weather in Rheinfelden (Baden), Baden-Württemberg, Germany — Yesterday and Last 2 Weeks

Now
36 °F

Clear.


Feels Like: 32 °F
Forecast: 30 / 65 °F
Wind: 5 mph from South

Location: Bale-Mulhouse

Current Time: Apr 29, 2017 at 5:41:56 am

Latest Report: Apr 29, 2017 at 5:00 am


Visibility: 4 mi

Pressure: 30.09 "Hg

Humidity: 93%

Dew Point: 34 °F

Location of Rheinfelden (Baden)Location

Past Weather in Rheinfelden (Baden) — Graph

°F

Rheinfelden (Baden) Temperature Yesterday

Maximum temperature yesterday: 52 °F (at 4:30 pm)
Minimum temperature yesterday: 39 °F (at 12:00 am)
Average temperature yesterday: 43 °F

High & Low Weather Summary for the Past Weeks

 TemperatureHumidityPressure
High70 °F (Apr 24, 4:30 pm)100% (Apr 17, 4:30 am)30.54 "Hg (Apr 17, 4:30 am)
Low25 °F (Apr 20, 7:00 am)19% (Apr 21, 6:00 pm)29.74 "Hg (Apr 25, 5:30 pm)
Average46 °F71%30.13 "Hg
* Reported Apr 14 4:00 am — Apr 29 4:00 am, Rheinfelden (Baden), Weather by CustomWeather, © 2017

Note: Actual official high and low records may vary slightly from our data, if they occured in-between our weather recording intervals... More about our weather records

Advertising

Rheinfelden (Baden) Weather History for the Previous 24 Hours

Scroll right to see more
 ConditionsComfort  
Time TempWeatherWind HumidityBarometerVisibility
4:00 am
Sat, Apr 29
36 °FClear.3 mph93%30.09 "Hg4 mi
3:30 am37 °FClear.5 mph93%30.09 "Hg5 mi
3:00 am36 °FClear.7 mph93%30.09 "Hg10 mi
2:30 am37 °FClear.3 mph93%30.09 "Hg10 mi
2:00 am37 °FClear.5 mph93%30.09 "Hg10 mi
1:30 am37 °FClear.3 mph93%30.09 "Hg10 mi
1:00 am37 °FPassing clouds.3 mph93%30.09 "HgN/A
12:30 am36 °FClear.3 mph93%30.09 "Hg10 mi
12:00 am37 °FPassing clouds.3 mph93%30.09 "HgN/A
11:30 pm
Fri, Apr 28
39 °FPassing clouds.3 mph87%30.07 "HgN/A
11:00 pm41 °FPassing clouds.3 mph87%30.07 "HgN/A
10:30 pm41 °FPassing clouds.2 mph87%30.07 "HgN/A
10:00 pm43 °FPassing clouds.3 mph81%30.07 "HgN/A
9:30 pm45 °FPassing clouds.3 mph76%30.04 "HgN/A
9:00 pm45 °FPassing clouds.3 mph76%30.04 "HgN/A
8:30 pm46 °FBroken clouds.3 mph76%30.04 "HgN/A
8:00 pm46 °FBroken clouds.6 mph76%30.04 "HgN/A
7:30 pm46 °FBroken clouds.5 mph76%30.04 "HgN/A
7:00 pm48 °FBroken clouds.3 mph62%30.04 "HgN/A
6:30 pm48 °FBroken clouds.2 mph62%30.01 "HgN/A
6:00 pm46 °FRain. Partly sunny.6 mph71%30.01 "Hg6 mi
5:30 pm46 °FBroken clouds.5 mph71%30.01 "HgN/A
5:00 pm48 °FPartly sunny.10 mph62%30.01 "HgN/A
4:30 pm52 °FBroken clouds.10 mph58%30.01 "HgN/A
4:00 pm50 °FBroken clouds.9 mph62%30.01 "HgN/A
3:00 pm48 °FBroken clouds.8 mph66%30.01 "HgN/A
2:30 pm45 °FPartly sunny.7 mph76%30.01 "HgN/A
2:00 pm45 °FLight rain. Partly sunny.8 mph76%30.01 "HgN/A
1:30 pm48 °FBroken clouds.5 mph58%29.98 "HgN/A
1:00 pm48 °FBroken clouds.6 mph58%29.98 "HgN/A
12:30 pm50 °FBroken clouds.5 mph62%29.98 "HgN/A
12:00 pm48 °FBroken clouds.5 mph71%29.98 "HgN/A
11:30 am46 °FBroken clouds.5 mph71%29.98 "HgN/A
11:11 am45 °FBroken clouds.6 mph76%29.98 "HgN/A
10:30 am45 °FPartly sunny.7 mph76%29.98 "HgN/A
9:30 am43 °FPartly sunny.7 mph87%29.95 "Hg6 mi
9:00 am43 °FBroken clouds.8 mph87%29.95 "Hg6 mi
8:30 am41 °FPartly sunny.7 mph93%29.95 "Hg4 mi
8:00 am41 °FPartly sunny.5 mph87%29.95 "Hg4 mi
7:30 am39 °FBroken clouds.3 mph93%29.92 "Hg4 mi
7:00 am39 °FDrizzle. Broken clouds.6 mph93%29.92 "Hg4 mi
6:30 am39 °FLight rain. Broken clouds.7 mph93%29.92 "Hg2 mi
6:00 am39 °FLight rain. Passing clouds.8 mph100%29.92 "Hg2 mi
5:30 am39 °FLight rain. Passing clouds.6 mph100%29.92 "Hg2 mi
5:00 am39 °FLight rain. Mostly cloudy.2 mph100%29.92 "Hg2 mi
Weather by CustomWeather, © 2017

See weather overviewHow to use our weather pages